Time,TemperatureF,DewpointF,PressureIn,WindDirection,WindDirectionDegrees,WindSpeedMPH,WindSpeedGustMPH,Humidity,HourlyPrecipIn,Conditions,Clouds,dailyrainin,SolarRadiationWatts/m^2,SoftwareType,DateUTC
2013-04-11 00:02:00,31.0,30.0,-100.00,SW,222,3.0,6.0,97,0.00,,,0.00,0.000000,,2013-04-11 06:02:00,
2013-04-11 00:12:00,31.0,30.0,-100.00,SW,222,3.0,6.0,97,0.00,,,0.00,0.000000,,2013-04-11 06:12:00,
2013-04-11 00:42:00,30.0,29.0,-100.00,SW,217,3.0,5.0,98,0.00,,,0.00,0.000000,,2013-04-11 06:42:00,
2013-04-11 00:52:00,30.0,29.0,-100.00,SW,217,3.0,5.0,98,0.00,,,0.00,0.000000,,2013-04-11 06:52:00,
2013-04-11 01:02:00,30.0,29.0,-100.00,SW,217,3.0,5.0,98,0.00,,,0.00,0.000000,,2013-04-11 07:02:00,
2013-04-11 01:12:00,30.0,29.0,-100.00,SW,217,3.0,5.0,98,0.00,,,0.00,0.000000,,2013-04-11 07:12:00,
2013-04-11 01:43:00,30.0,29.0,-100.00,SW,216,3.0,7.0,98,0.00,,,0.00,0.000000,,2013-04-11 07:43:00,
2013-04-11 01:52:00,30.0,29.0,-100.00,SW,216,3.0,7.0,98,0.00,,,0.00,0.000000,,2013-04-11 07:52:00,
2013-04-11 02:02:00,30.0,29.0,-100.00,SW,216,3.0,7.0,98,0.00,,,0.00,0.000000,,2013-04-11 08:02:00,
2013-04-11 02:11:00,30.0,29.0,-100.00,SW,216,3.0,7.0,98,0.00,,,0.00,0.000000,,2013-04-11 08:11:00,
2013-04-11 02:43:00,29.0,29.0,-100.00,SW,221,3.0,5.0,98,0.00,,,0.00,0.000000,,2013-04-11 08:43:00,
2013-04-11 02:52:00,29.0,29.0,-100.00,SW,221,3.0,5.0,98,0.00,,,0.00,0.000000,,2013-04-11 08:52:00,
2013-04-11 03:02:00,29.0,29.0,-100.00,SW,221,3.0,5.0,98,0.00,,,0.00,0.000000,,2013-04-11 09:02:00,
2013-04-11 03:11:00,29.0,29.0,-100.00,SW,221,3.0,5.0,98,0.00,,,0.00,0.000000,,2013-04-11 09:11:00,
2013-04-11 03:53:00,28.0,28.0,-100.00,SSW,204,2.0,5.0,98,0.00,,,0.00,0.000000,,2013-04-11 09:53:00,
2013-04-11 04:02:00,28.0,28.0,-100.00,SSW,204,2.0,5.0,98,0.00,,,0.00,0.000000,,2013-04-11 10:02:00,
2013-04-11 04:12:00,28.0,28.0,-100.00,SSW,204,2.0,5.0,98,0.00,,,0.00,0.000000,,2013-04-11 10:12:00,
2013-04-11 04:52:00,28.0,27.0,-100.00,SSW,212,1.0,4.0,97,0.00,,,0.00,0.000000,,2013-04-11 10:52:00,
2013-04-11 05:02:00,28.0,27.0,-100.00,SSW,212,1.0,4.0,97,0.00,,,0.00,0.000000,,2013-04-11 11:02:00,
2013-04-11 05:12:00,28.0,27.0,-100.00,SSW,212,1.0,4.0,97,0.00,,,0.00,0.000000,,2013-04-11 11:12:00,
2013-04-11 05:43:00,27.0,26.0,-100.00,SW,224,1.0,3.0,97,0.00,,,-99.99,0.000000,,2013-04-11 11:43:00,
2013-04-11 05:52:00,27.0,26.0,-100.00,SW,224,1.0,3.0,97,0.00,,,-99.99,0.000000,,2013-04-11 11:52:00,
2013-04-11 06:02:00,27.0,26.0,-100.00,SW,224,1.0,3.0,97,0.00,,,-99.99,0.000000,,2013-04-11 12:02:00,
2013-04-11 06:12:00,27.0,26.0,-100.00,SW,224,1.0,3.0,97,0.00,,,-99.99,0.000000,,2013-04-11 12:12:00,
2013-04-11 06:43:00,27.0,26.0,-100.00,SW,218,1.0,2.0,97,0.00,,,-99.99,0.000000,,2013-04-11 12:43:00,
2013-04-11 06:52:00,27.0,26.0,-100.00,SW,218,1.0,2.0,97,0.00,,,-99.99,0.000000,,2013-04-11 12:52:00,
2013-04-11 07:02:00,27.0,26.0,-100.00,SW,218,1.0,2.0,97,0.00,,,-99.99,0.000000,,2013-04-11 13:02:00,
2013-04-11 07:12:00,27.0,26.0,-100.00,SW,218,1.0,2.0,97,0.00,,,-99.99,0.000000,,2013-04-11 13:12:00,
2013-04-11 07:43:00,27.0,26.0,-100.00,SSW,213,1.0,2.0,96,0.00,,,0.00,0.000000,,2013-04-11 13:43:00,
2013-04-11 07:53:00,27.0,26.0,-100.00,SSW,213,1.0,2.0,96,0.00,,,0.00,0.000000,,2013-04-11 13:53:00,
2013-04-11 08:02:00,27.0,26.0,-100.00,SSW,213,1.0,2.0,96,0.00,,,0.00,0.000000,,2013-04-11 14:02:00,
2013-04-11 08:12:00,27.0,26.0,-100.00,SSW,213,1.0,2.0,96,0.00,,,0.00,0.000000,,2013-04-11 14:12:00,
2013-04-11 08:42:00,27.0,26.0,-100.00,SW,234,1.0,3.0,96,0.00,,,0.00,1.000000,,2013-04-11 14:42:00,
2013-04-11 08:52:00,27.0,26.0,-100.00,SW,234,1.0,3.0,96,0.00,,,0.00,1.000000,,2013-04-11 14:52:00,
2013-04-11 09:02:00,27.0,26.0,-100.00,SW,234,1.0,3.0,96,0.00,,,0.00,1.000000,,2013-04-11 15:02:00,
2013-04-11 09:12:00,27.0,26.0,-100.00,SW,234,1.0,3.0,96,0.00,,,0.00,1.000000,,2013-04-11 15:12:00,
2013-04-11 11:33:00,28.0,25.0,-100.00,WSW,247,2.0,4.0,90,-99.99,,,0.00,127.000000,,2013-04-11 17:33:00,
2013-04-11 11:43:00,28.0,25.0,-100.00,WSW,247,2.0,4.0,90,-99.99,,,0.00,127.000000,,2013-04-11 17:43:00,
2013-04-11 11:53:00,28.0,25.0,-100.00,WSW,247,2.0,4.0,90,-99.99,,,0.00,127.000000,,2013-04-11 17:53:00,
2013-04-11 12:02:00,28.0,25.0,-100.00,WSW,247,2.0,4.0,90,-99.99,,,0.00,127.000000,,2013-04-11 18:02:00,
2013-04-11 12:12:00,28.0,25.0,-100.00,WSW,247,2.0,4.0,90,-99.99,,,0.00,127.000000,,2013-04-11 18:12:00,
2013-04-11 12:43:00,32.0,25.0,-100.00,WSW,244,2.0,5.0,76,0.00,,,0.00,273.000000,,2013-04-11 18:43:00,
2013-04-11 12:53:00,32.0,25.0,-100.00,WSW,244,2.0,5.0,76,0.00,,,0.00,273.000000,,2013-04-11 18:53:00,
2013-04-11 13:03:00,32.0,25.0,-100.00,WSW,244,2.0,5.0,76,0.00,,,0.00,273.000000,,2013-04-11 19:03:00,
2013-04-11 13:13:00,32.0,25.0,-100.00,WSW,244,2.0,5.0,76,0.00,,,0.00,273.000000,,2013-04-11 19:13:00,
2013-04-11 13:33:00,34.0,27.0,-100.00,SW,232,2.0,6.0,74,0.00,,,0.00,462.000000,,2013-04-11 19:33:00,
2013-04-11 13:43:00,34.0,27.0,-100.00,SW,232,2.0,6.0,74,0.00,,,0.00,462.000000,,2013-04-11 19:43:00,
2013-04-11 13:53:00,34.0,27.0,-100.00,SW,232,2.0,6.0,74,0.00,,,0.00,462.000000,,2013-04-11 19:53:00,
2013-04-11 14:02:00,34.0,27.0,-100.00,SW,232,2.0,6.0,74,0.00,,,0.00,462.000000,,2013-04-11 20:02:00,
2013-04-11 14:12:00,34.0,27.0,-100.00,SW,232,2.0,6.0,74,0.00,,,0.00,462.000000,,2013-04-11 20:12:00,
2013-04-11 14:43:00,32.0,24.0,-100.00,SW,232,2.0,4.0,73,0.00,,,0.00,270.000000,,2013-04-11 20:43:00,
2013-04-11 14:52:00,32.0,24.0,-100.00,SW,232,2.0,4.0,73,0.00,,,0.00,270.000000,,2013-04-11 20:52:00,
2013-04-11 15:02:00,32.0,24.0,-100.00,SW,232,2.0,4.0,73,0.00,,,0.00,270.000000,,2013-04-11 21:02:00,
2013-04-11 15:11:00,32.0,24.0,-100.00,SW,232,2.0,4.0,73,0.00,,,0.00,270.000000,,2013-04-11 21:11:00,
2013-04-11 15:43:00,32.0,23.0,-100.00,SW,229,3.0,4.0,68,0.00,,,0.00,196.000000,,2013-04-11 21:43:00,
2013-04-11 15:53:00,32.0,23.0,-100.00,SW,229,3.0,4.0,68,0.00,,,0.00,196.000000,,2013-04-11 21:53:00,
2013-04-11 16:02:00,32.0,23.0,-100.00,SW,229,3.0,4.0,68,0.00,,,0.00,196.000000,,2013-04-11 22:02:00,
2013-04-11 16:13:00,32.0,23.0,-100.00,SW,229,3.0,4.0,68,0.00,,,0.00,196.000000,,2013-04-11 22:13:00,
2013-04-11 16:33:00,33.0,23.0,-100.00,SW,230,3.0,5.0,66,0.00,,,0.00,439.000000,,2013-04-11 22:33:00,
2013-04-11 16:44:00,33.0,23.0,-100.00,SW,230,3.0,5.0,66,0.00,,,0.00,439.000000,,2013-04-11 22:44:00,
2013-04-11 16:53:00,33.0,23.0,-100.00,SW,230,3.0,5.0,66,0.00,,,0.00,439.000000,,2013-04-11 22:53:00,
2013-04-11 17:03:00,33.0,23.0,-100.00,SW,230,3.0,5.0,66,0.00,,,0.00,439.000000,,2013-04-11 23:03:00,
2013-04-11 17:12:00,33.0,23.0,-100.00,SW,230,3.0,5.0,66,0.00,,,0.00,439.000000,,2013-04-11 23:12:00,
2013-04-11 17:33:00,31.0,21.0,-100.00,SW,221,3.0,6.0,67,0.00,,,0.00,141.000000,,2013-04-11 23:33:00,
2013-04-11 17:43:00,31.0,21.0,-100.00,SW,221,3.0,6.0,67,0.00,,,0.00,141.000000,,2013-04-11 23:43:00,
2013-04-11 17:53:00,31.0,21.0,-100.00,SW,221,3.0,6.0,67,0.00,,,0.00,141.000000,,2013-04-11 23:53:00,
2013-04-11 18:02:00,31.0,21.0,-100.00,SW,221,3.0,6.0,67,0.00,,,0.00,141.000000,,2013-04-12 00:02:00,
2013-04-11 18:11:00,31.0,21.0,-100.00,SW,221,3.0,6.0,67,0.00,,,0.00,141.000000,,2013-04-12 00:11:00,
2013-04-11 19:33:00,33.0,19.0,-100.00,SW,235,4.0,7.0,56,-99.99,,,0.00,230.000000,,2013-04-12 01:33:00,
2013-04-11 19:42:00,33.0,19.0,-100.00,SW,235,4.0,7.0,56,-99.99,,,0.00,230.000000,,2013-04-12 01:42:00,
2013-04-11 19:52:00,33.0,19.0,-100.00,SW,235,4.0,7.0,56,-99.99,,,0.00,230.000000,,2013-04-12 01:52:00,
2013-04-11 20:02:00,33.0,19.0,-100.00,SW,235,4.0,7.0,56,-99.99,,,0.00,230.000000,,2013-04-12 02:02:00,
2013-04-11 20:12:00,33.0,19.0,-100.00,SW,235,4.0,7.0,56,-99.99,,,0.00,230.000000,,2013-04-12 02:12:00,
2013-04-11 20:42:00,31.0,18.0,-100.00,SW,228,4.0,7.0,59,0.00,,,0.00,112.000000,,2013-04-12 02:42:00,
2013-04-11 20:52:00,31.0,18.0,-100.00,SW,228,4.0,7.0,59,0.00,,,0.00,112.000000,,2013-04-12 02:52:00,
2013-04-11 21:02:00,31.0,18.0,-100.00,SW,228,4.0,7.0,59,0.00,,,0.00,112.000000,,2013-04-12 03:02:00,
2013-04-11 21:11:00,31.0,18.0,-100.00,SW,228,4.0,7.0,59,0.00,,,0.00,112.000000,,2013-04-12 03:11:00,
2013-04-11 21:33:00,27.0,20.0,-100.00,WSW,244,3.0,7.0,74,0.00,,,0.00,42.000000,,2013-04-12 03:33:00,
2013-04-11 21:43:00,27.0,20.0,-100.00,WSW,244,3.0,7.0,74,0.00,,,0.00,42.000000,,2013-04-12 03:43:00,
2013-04-11 21:53:00,27.0,20.0,-100.00,WSW,244,3.0,7.0,74,0.00,,,0.00,42.000000,,2013-04-12 03:53:00,
2013-04-11 22:02:00,27.0,20.0,-100.00,WSW,244,3.0,7.0,74,0.00,,,0.00,42.000000,,2013-04-12 04:02:00,
2013-04-11 22:13:00,27.0,20.0,-100.00,WSW,244,3.0,7.0,74,0.00,,,0.00,42.000000,,2013-04-12 04:13:00,
2013-04-11 22:33:00,26.0,21.0,-100.00,SW,233,3.0,7.0,80,0.00,,,0.00,0.000000,,2013-04-12 04:33:00,
2013-04-11 22:43:00,26.0,21.0,-100.00,SW,233,3.0,7.0,80,0.00,,,0.00,0.000000,,2013-04-12 04:43:00,
2013-04-11 22:53:00,26.0,21.0,-100.00,SW,233,3.0,7.0,80,0.00,,,0.00,0.000000,,2013-04-12 04:53:00,
2013-04-11 23:02:00,26.0,21.0,-100.00,SW,233,3.0,7.0,80,0.00,,,0.00,0.000000,,2013-04-12 05:02:00,
2013-04-11 23:11:00,26.0,21.0,-100.00,SW,233,3.0,7.0,80,0.00,,,0.00,0.000000,,2013-04-12 05:11:00,
2013-04-11 23:32:00,24.0,20.0,-100.00,SW,229,2.0,6.0,83,0.00,,,0.00,0.000000,,2013-04-12 05:32:00,
2013-04-11 23:42:00,24.0,20.0,-100.00,SW,229,2.0,6.0,83,0.00,,,0.00,0.000000,,2013-04-12 05:42:00,
2013-04-11 23:52:00,24.0,20.0,-100.00,SW,229,2.0,6.0,83,0.00,,,0.00,0.000000,,2013-04-12 05:52:00,